Time,TemperatureF,DewpointF,PressureIn,WindDirection,WindDirectionDegrees,WindSpeedMPH,WindSpeedGustMPH,Humidity,HourlyPrecipIn,Conditions,Clouds,dailyrainin,SoftwareType,DateUTC
2013-03-18 00:03:00,32.0,32.0,29.89,ENE,70,12.0,-999.0,100,-99.99,,,-99.99,,2013-03-18 00:03:00,
2013-03-18 00:12:00,32.0,32.0,29.89,ENE,70,12.0,-999.0,100,-99.99,,,-99.99,,2013-03-18 00:12:00,
2013-03-18 00:22:00,32.0,32.0,29.87,ENE,70,12.0,16.0,100,-99.99,,,-99.99,,2013-03-18 00:22:00,
2013-03-18 00:33:00,32.0,32.0,29.87,ENE,70,13.0,18.0,100,-99.99,,,-99.99,,2013-03-18 00:33:00,
2013-03-18 00:42:00,32.0,32.0,29.85,ENE,70,12.0,-999.0,100,-99.99,,,-99.99,,2013-03-18 00:42:00,
2013-03-18 00:52:00,32.0,32.0,29.85,ENE,70,12.0,17.0,100,-99.99,,,-99.99,,2013-03-18 00:52:00,
2013-03-18 01:02:00,32.0,32.0,29.85,ENE,70,12.0,17.0,100,-99.99,,,-99.99,,2013-03-18 01:02:00,
2013-03-18 01:12:00,32.0,32.0,29.85,ENE,70,12.0,17.0,100,-99.99,,,-99.99,,2013-03-18 01:12:00,
2013-03-18 01:22:00,32.0,32.0,29.85,East,80,13.0,18.0,100,-99.99,,,-99.99,,2013-03-18 01:22:00,
2013-03-18 01:32:00,32.0,32.0,29.86,East,80,14.0,18.0,100,-99.99,,,-99.99,,2013-03-18 01:32:00,
2013-03-18 01:42:00,32.0,32.0,29.86,ENE,70,12.0,-999.0,100,-99.99,,,-99.99,,2013-03-18 01:42:00,
2013-03-18 01:52:00,32.0,32.0,29.85,ENE,70,14.0,20.0,100,-99.99,,,-99.99,,2013-03-18 01:52:00,
2013-03-18 02:02:00,32.0,32.0,29.85,ENE,70,14.0,20.0,100,-99.99,,,-99.99,,2013-03-18 02:02:00,
2013-03-18 02:12:00,32.0,32.0,29.85,ENE,70,14.0,20.0,100,-99.99,,,-99.99,,2013-03-18 02:12:00,
2013-03-18 02:22:00,32.0,32.0,29.85,ENE,70,10.0,16.0,100,-99.99,,,-99.99,,2013-03-18 02:22:00,
2013-03-18 02:32:00,32.0,32.0,29.85,ENE,70,9.0,-999.0,100,-99.99,,,-99.99,,2013-03-18 02:32:00,
2013-03-18 02:42:00,32.0,32.0,29.86,East,80,10.0,-999.0,100,-99.99,,,-99.99,,2013-03-18 02:42:00,
2013-03-18 02:52:00,32.0,32.0,29.87,ENE,60,8.0,-999.0,100,-99.99,,,-99.99,,2013-03-18 02:52:00,
2013-03-18 03:02:00,32.0,32.0,29.87,ENE,60,8.0,-999.0,100,-99.99,,,-99.99,,2013-03-18 03:02:00,
2013-03-18 03:11:00,32.0,32.0,29.87,ENE,60,8.0,-999.0,100,-99.99,,,-99.99,,2013-03-18 03:11:00,
2013-03-18 03:22:00,32.0,32.0,29.84,ENE,70,13.0,-999.0,100,-99.99,,,-99.99,,2013-03-18 03:22:00,
2013-03-18 03:33:00,32.0,32.0,29.85,ENE,70,12.0,-999.0,100,-99.99,,,-99.99,,2013-03-18 03:33:00,
2013-03-18 03:42:00,32.0,32.0,29.84,ENE,70,9.0,20.0,100,-99.99,,,-99.99,,2013-03-18 03:42:00,
2013-03-18 03:53:00,32.0,32.0,29.84,NNE,30,10.0,-999.0,100,-99.99,,,-99.99,,2013-03-18 03:53:00,
2013-03-18 04:03:00,32.0,32.0,29.84,NNE,30,10.0,-999.0,100,-99.99,,,-99.99,,2013-03-18 04:03:00,
2013-03-18 04:13:00,32.0,32.0,29.84,NNE,30,10.0,-999.0,100,-99.99,,,-99.99,,2013-03-18 04:13:00,
2013-03-18 04:22:00,32.0,32.0,29.82,East,80,12.0,-999.0,100,-99.99,,,-99.99,,2013-03-18 04:22:00,
2013-03-18 04:33:00,32.0,32.0,29.81,ENE,70,12.0,-999.0,100,-99.99,,,-99.99,,2013-03-18 04:33:00,
2013-03-18 04:42:00,32.0,32.0,29.80,East,80,15.0,-999.0,100,-99.99,,,-99.99,,2013-03-18 04:42:00,
2013-03-18 04:53:00,32.0,32.0,29.79,East,90,15.0,18.0,100,-99.99,,,-99.99,,2013-03-18 04:53:00,
2013-03-18 05:02:00,32.0,32.0,29.79,East,90,15.0,18.0,100,-99.99,,,-99.99,,2013-03-18 05:02:00,
2013-03-18 05:12:00,32.0,32.0,29.79,East,90,15.0,18.0,100,-99.99,,,-99.99,,2013-03-18 05:12:00,
2013-03-18 05:22:00,32.0,32.0,29.77,East,90,14.0,-999.0,100,-99.99,,,-99.99,,2013-03-18 05:22:00,
2013-03-18 05:32:00,32.0,32.0,29.78,East,80,12.0,18.0,100,-99.99,,,-99.99,,2013-03-18 05:32:00,
2013-03-18 05:43:00,32.0,32.0,29.77,East,80,9.0,-999.0,100,-99.99,,,-99.99,,2013-03-18 05:43:00,
2013-03-18 05:52:00,32.0,32.0,29.77,East,80,9.0,-999.0,100,-99.99,,,-99.99,,2013-03-18 05:52:00,
2013-03-18 06:02:00,32.0,32.0,29.77,East,80,9.0,-999.0,100,-99.99,,,-99.99,,2013-03-18 06:02:00,
2013-03-18 06:12:00,32.0,32.0,29.77,East,80,9.0,-999.0,100,-99.99,,,-99.99,,2013-03-18 06:12:00,
2013-03-18 06:22:00,32.0,32.0,29.77,East,90,12.0,-999.0,100,-99.99,,,-99.99,,2013-03-18 06:22:00,
2013-03-18 06:32:00,32.0,32.0,29.77,East,90,9.0,-999.0,100,-99.99,,,-99.99,,2013-03-18 06:32:00,
2013-03-18 06:42:00,32.0,32.0,29.76,East,100,10.0,16.0,100,-99.99,,,-99.99,,2013-03-18 06:42:00,
2013-03-18 06:52:00,32.0,32.0,29.76,East,100,9.0,-999.0,100,-99.99,,,-99.99,,2013-03-18 06:52:00,
2013-03-18 07:02:00,32.0,32.0,29.76,East,100,9.0,-999.0,100,-99.99,,,-99.99,,2013-03-18 07:02:00,
2013-03-18 07:12:00,32.0,32.0,29.76,East,100,9.0,-999.0,100,-99.99,,,-99.99,,2013-03-18 07:12:00,
2013-03-18 07:22:00,32.0,32.0,29.75,East,90,9.0,-999.0,100,-99.99,,,-99.99,,2013-03-18 07:22:00,
2013-03-18 07:32:00,32.0,32.0,29.75,East,90,8.0,-999.0,100,-99.99,,,-99.99,,2013-03-18 07:32:00,
2013-03-18 07:43:00,32.0,32.0,29.75,East,80,7.0,-999.0,100,-99.99,,,-99.99,,2013-03-18 07:43:00,
2013-03-18 07:53:00,32.0,32.0,29.75,East,90,8.0,-999.0,100,-99.99,,,-99.99,,2013-03-18 07:53:00,
2013-03-18 08:02:00,32.0,32.0,29.75,East,90,8.0,-999.0,100,-99.99,,,-99.99,,2013-03-18 08:02:00,
2013-03-18 08:12:00,32.0,32.0,29.75,East,90,8.0,-999.0,100,-99.99,,,-99.99,,2013-03-18 08:12:00,
2013-03-18 08:22:00,32.0,32.0,29.75,ENE,70,3.0,-999.0,100,-99.99,,,-99.99,,2013-03-18 08:22:00,
2013-03-18 08:32:00,32.0,-99.9,29.74,ENE,60,5.0,-999.0,-999,-99.99,,,-99.99,,2013-03-18 08:32:00,
2013-03-18 08:43:00,32.0,-99.9,29.75,NE,50,5.0,-999.0,-999,-99.99,,,-99.99,,2013-03-18 08:43:00,
2013-03-18 08:53:00,32.0,-99.9,29.74,ENE,60,3.0,-999.0,-999,-99.99,,,-99.99,,2013-03-18 08:53:00,
2013-03-18 09:02:00,32.0,-99.9,29.74,ENE,60,3.0,-999.0,-999,-99.99,,,-99.99,,2013-03-18 09:02:00,
2013-03-18 09:13:00,32.0,-99.9,29.74,ENE,60,3.0,-999.0,-999,-99.99,,,-99.99,,2013-03-18 09:13:00,
2013-03-18 09:22:00,32.0,-99.9,29.74,North,0,0.0,-999.0,-999,-99.99,,,-99.99,,2013-03-18 09:22:00,
2013-03-18 09:33:00,32.0,-99.9,29.74,North,0,0.0,-999.0,-999,-99.99,,,-99.99,,2013-03-18 09:33:00,
2013-03-18 09:43:00,32.0,-99.9,29.73,North,10,3.0,-999.0,-999,-99.99,,,-99.99,,2013-03-18 09:43:00,
2013-03-18 09:53:00,32.0,-99.9,29.73,North,0,0.0,-999.0,-999,-99.99,,,-99.99,,2013-03-18 09:53:00,
2013-03-18 10:04:00,32.0,-99.9,29.73,North,0,0.0,-999.0,-999,-99.99,,,-99.99,,2013-03-18 10:04:00,
2013-03-18 10:13:00,32.0,-99.9,29.73,North,0,0.0,-999.0,-999,-99.99,,,-99.99,,2013-03-18 10:13:00,
2013-03-18 10:23:00,32.0,-99.9,29.72,NE,40,5.0,-999.0,-999,-99.99,,,-99.99,,2013-03-18 10:23:00,
2013-03-18 10:33:00,32.0,-99.9,29.72,NE,50,6.0,-999.0,-999,-99.99,,,-99.99,,2013-03-18 10:33:00,
2013-03-18 10:42:00,32.0,-99.9,29.71,ENE,60,3.0,-999.0,-999,-99.99,,,-99.99,,2013-03-18 10:42:00,
2013-03-18 10:53:00,32.0,-99.9,29.72,North,0,0.0,-999.0,-999,-99.99,,,-99.99,,2013-03-18 10:53:00,
2013-03-18 11:03:00,32.0,-99.9,29.72,North,0,0.0,-999.0,-999,-99.99,,,-99.99,,2013-03-18 11:03:00,
2013-03-18 11:13:00,32.0,-99.9,29.72,North,0,0.0,-999.0,-999,-99.99,,,-99.99,,2013-03-18 11:13:00,
2013-03-18 11:22:00,32.0,-99.9,29.72,North,0,0.0,-999.0,-999,-99.99,,,-99.99,,2013-03-18 11:22:00,
2013-03-18 11:32:00,32.0,-99.9,29.73,North,0,0.0,-999.0,-999,-99.99,,,-99.99,,2013-03-18 11:32:00,
2013-03-18 11:43:00,32.0,-99.9,29.73,North,0,0.0,-999.0,-999,-99.99,,,-99.99,,2013-03-18 11:43:00,
2013-03-18 11:53:00,32.0,-99.9,29.73,North,0,0.0,-999.0,-999,-99.99,,,-99.99,,2013-03-18 11:53:00,
2013-03-18 12:03:00,32.0,-99.9,29.73,North,0,0.0,-999.0,-999,-99.99,,,-99.99,,2013-03-18 12:03:00,
2013-03-18 12:13:00,32.0,-99.9,29.73,North,0,0.0,-999.0,-999,-99.99,,,-99.99,,2013-03-18 12:13:00,
2013-03-18 12:22:00,32.0,-99.9,29.75,WSW,250,5.0,-999.0,-999,-99.99,,,-99.99,,2013-03-18 12:22:00,
2013-03-18 12:33:00,32.0,-99.9,29.76,West,260,5.0,-999.0,-999,-99.99,,,-99.99,,2013-03-18 12:33:00,
2013-03-18 12:43:00,32.0,-99.9,29.76,West,260,5.0,-999.0,-999,-99.99,,,-99.99,,2013-03-18 12:43:00,
2013-03-18 12:52:00,32.0,-99.9,29.75,West,260,3.0,-999.0,-999,-99.99,,,-99.99,,2013-03-18 12:52:00,
2013-03-18 13:03:00,32.0,-99.9,29.75,West,260,3.0,-999.0,-999,-99.99,,,-99.99,,2013-03-18 13:03:00,
2013-03-18 13:12:00,32.0,-99.9,29.75,West,260,3.0,-999.0,-999,-99.99,,,-99.99,,2013-03-18 13:12:00,
2013-03-18 13:23:00,32.0,-99.9,29.74,WNW,290,5.0,-999.0,-999,-99.99,,,-99.99,,2013-03-18 13:23:00,
2013-03-18 13:33:00,32.0,-99.9,29.74,West,280,6.0,-999.0,-999,-99.99,,,-99.99,,2013-03-18 13:33:00,
2013-03-18 13:43:00,32.0,-99.9,29.75,West,280,9.0,-999.0,-999,-99.99,,,-99.99,,2013-03-18 13:43:00,
2013-03-18 13:52:00,32.0,-99.9,29.75,West,270,9.0,-999.0,-999,-99.99,,,-99.99,,2013-03-18 13:52:00,
2013-03-18 14:03:00,32.0,-99.9,29.75,West,270,9.0,-999.0,-999,-99.99,,,-99.99,,2013-03-18 14:03:00,
2013-03-18 14:12:00,32.0,-99.9,29.75,West,270,9.0,-999.0,-999,-99.99,,,-99.99,,2013-03-18 14:12:00,
2013-03-18 14:22:00,34.0,-99.9,29.75,West,280,9.0,-999.0,-999,-99.99,,,-99.99,,2013-03-18 14:22:00,
2013-03-18 14:32:00,34.0,-99.9,29.76,West,280,13.0,-999.0,-999,-99.99,,,-99.99,,2013-03-18 14:32:00,
2013-03-18 14:42:00,34.0,-99.9,29.76,West,280,12.0,-999.0,-999,-99.99,,,-99.99,,2013-03-18 14:42:00,
2013-03-18 14:52:00,34.0,-99.9,29.76,West,280,13.0,17.0,-999,-99.99,,,-99.99,,2013-03-18 14:52:00,
2013-03-18 15:02:00,34.0,-99.9,29.76,West,280,13.0,17.0,-999,-99.99,,,-99.99,,2013-03-18 15:02:00,
2013-03-18 15:12:00,34.0,-99.9,29.76,West,280,13.0,17.0,-999,-99.99,,,-99.99,,2013-03-18 15:12:00,
2013-03-18 15:22:00,34.0,34.0,29.78,West,280,17.0,22.0,100,-99.99,,,-99.99,,2013-03-18 15:22:00,
2013-03-18 15:33:00,36.0,36.0,29.79,WNW,290,15.0,24.0,100,-99.99,,,-99.99,,2013-03-18 15:33:00,
2013-03-18 15:43:00,36.0,36.0,29.80,West,280,14.0,-999.0,100,-99.99,,,-99.99,,2013-03-18 15:43:00,
2013-03-18 15:52:00,36.0,36.0,29.80,West,280,17.0,24.0,100,-99.99,,,-99.99,,2013-03-18 15:52:00,
2013-03-18 16:03:00,36.0,36.0,29.80,West,280,17.0,24.0,100,-99.99,,,-99.99,,2013-03-18 16:03:00,
2013-03-18 16:12:00,36.0,36.0,29.80,West,280,17.0,24.0,100,-99.99,,,-99.99,,2013-03-18 16:12:00,
2013-03-18 16:22:00,36.0,36.0,29.80,West,270,13.0,-999.0,100,-99.99,,,-99.99,,2013-03-18 16:22:00,
2013-03-18 16:32:00,36.0,36.0,29.80,West,280,17.0,24.0,100,-99.99,,,-99.99,,2013-03-18 16:32:00,
2013-03-18 16:42:00,37.0,36.0,29.80,WNW,290,16.0,-999.0,93,-99.99,,,-99.99,,2013-03-18 16:42:00,
2013-03-18 16:53:00,37.0,36.0,29.80,WNW,290,17.0,24.0,93,-99.99,,,-99.99,,2013-03-18 16:53:00,
2013-03-18 17:02:00,37.0,36.0,29.80,WNW,290,17.0,24.0,93,-99.99,,,-99.99,,2013-03-18 17:02:00,
2013-03-18 17:12:00,37.0,36.0,29.80,WNW,290,17.0,24.0,93,-99.99,,,-99.99,,2013-03-18 17:12:00,
2013-03-18 17:22:00,37.0,36.0,29.82,WNW,290,20.0,24.0,93,-99.99,,,-99.99,,2013-03-18 17:22:00,
2013-03-18 17:32:00,37.0,36.0,29.82,WNW,290,15.0,25.0,93,-99.99,,,-99.99,,2013-03-18 17:32:00,
2013-03-18 17:43:00,37.0,36.0,29.82,West,280,18.0,23.0,93,-99.99,,,-99.99,,2013-03-18 17:43:00,
2013-03-18 17:52:00,37.0,36.0,29.82,West,280,15.0,29.0,93,-99.99,,,-99.99,,2013-03-18 17:52:00,
2013-03-18 18:02:00,37.0,36.0,29.82,West,280,15.0,29.0,93,-99.99,,,-99.99,,2013-03-18 18:02:00,
2013-03-18 18:12:00,37.0,36.0,29.82,West,280,15.0,29.0,93,-99.99,,,-99.99,,2013-03-18 18:12:00,
2013-03-18 18:22:00,39.0,36.0,29.83,West,280,17.0,24.0,86,-99.99,,,-99.99,,2013-03-18 18:22:00,
2013-03-18 18:32:00,39.0,36.0,29.84,WNW,290,18.0,25.0,86,-99.99,,,-99.99,,2013-03-18 18:32:00,
2013-03-18 18:42:00,39.0,36.0,29.84,WNW,290,21.0,28.0,86,-99.99,,,-99.99,,2013-03-18 18:42:00,
2013-03-18 18:52:00,41.0,36.0,29.83,WNW,290,20.0,24.0,80,-99.99,,,-99.99,,2013-03-18 18:52:00,
2013-03-18 19:02:00,41.0,36.0,29.83,WNW,290,20.0,24.0,80,-99.99,,,-99.99,,2013-03-18 19:02:00,
2013-03-18 19:12:00,41.0,36.0,29.83,WNW,290,20.0,24.0,80,-99.99,,,-99.99,,2013-03-18 19:12:00,
2013-03-18 19:22:00,43.0,36.0,29.83,WNW,290,15.0,25.0,75,-99.99,,,-99.99,,2013-03-18 19:22:00,
2013-03-18 19:32:00,43.0,36.0,29.82,WNW,300,23.0,-999.0,75,-99.99,,,-99.99,,2013-03-18 19:32:00,
2013-03-18 19:42:00,43.0,36.0,29.82,WNW,300,16.0,28.0,75,-99.99,,,-99.99,,2013-03-18 19:42:00,
2013-03-18 19:52:00,45.0,36.0,29.82,West,280,18.0,24.0,70,-99.99,,,-99.99,,2013-03-18 19:52:00,
2013-03-18 20:02:00,45.0,36.0,29.82,West,280,18.0,24.0,70,-99.99,,,-99.99,,2013-03-18 20:02:00,
2013-03-18 20:12:00,45.0,36.0,29.82,West,280,18.0,24.0,70,-99.99,,,-99.99,,2013-03-18 20:12:00,
2013-03-18 20:22:00,46.0,36.0,29.82,WNW,290,21.0,30.0,65,-99.99,,,-99.99,,2013-03-18 20:22:00,
2013-03-18 20:32:00,46.0,36.0,29.82,West,280,21.0,25.0,65,-99.99,,,-99.99,,2013-03-18 20:32:00,
2013-03-18 20:43:00,48.0,36.0,29.82,WNW,290,21.0,27.0,61,-99.99,,,-99.99,,2013-03-18 20:43:00,
2013-03-18 20:52:00,46.0,32.0,29.82,WNW,290,23.0,30.0,57,-99.99,,,-99.99,,2013-03-18 20:52:00,
2013-03-18 21:02:00,46.0,32.0,29.82,WNW,290,23.0,30.0,57,-99.99,,,-99.99,,2013-03-18 21:02:00,
2013-03-18 21:12:00,46.0,32.0,29.82,WNW,290,23.0,30.0,57,-99.99,,,-99.99,,2013-03-18 21:12:00,
2013-03-18 21:22:00,48.0,32.0,29.82,WNW,290,18.0,32.0,53,-99.99,,,-99.99,,2013-03-18 21:22:00,
2013-03-18 21:32:00,48.0,32.0,29.82,NW,310,28.0,33.0,53,-99.99,,,-99.99,,2013-03-18 21:32:00,
2013-03-18 21:43:00,48.0,30.0,29.83,WNW,290,24.0,35.0,49,-99.99,,,-99.99,,2013-03-18 21:43:00,
2013-03-18 21:53:00,46.0,30.0,29.83,WNW,290,24.0,32.0,52,-99.99,,,-99.99,,2013-03-18 21:53:00,
2013-03-18 22:03:00,46.0,30.0,29.83,WNW,290,24.0,32.0,52,-99.99,,,-99.99,,2013-03-18 22:03:00,
2013-03-18 22:13:00,46.0,30.0,29.83,WNW,290,24.0,32.0,52,-99.99,,,-99.99,,2013-03-18 22:13:00,
2013-03-18 22:23:00,46.0,32.0,29.84,West,280,21.0,28.0,57,-99.99,,,-99.99,,2013-03-18 22:23:00,
2013-03-18 22:33:00,46.0,32.0,29.84,WNW,300,17.0,28.0,57,-99.99,,,-99.99,,2013-03-18 22:33:00,
2013-03-18 22:42:00,46.0,32.0,29.84,West,280,20.0,27.0,57,-99.99,,,-99.99,,2013-03-18 22:42:00,
2013-03-18 22:53:00,46.0,30.0,29.85,West,280,25.0,32.0,52,-99.99,,,-99.99,,2013-03-18 22:53:00,
2013-03-18 23:03:00,46.0,30.0,29.85,West,280,25.0,32.0,52,-99.99,,,-99.99,,2013-03-18 23:03:00,
2013-03-18 23:12:00,46.0,30.0,29.85,West,280,25.0,32.0,52,-99.99,,,-99.99,,2013-03-18 23:12:00,
2013-03-18 23:22:00,46.0,28.0,29.86,West,270,28.0,36.0,49,-99.99,,,-99.99,,2013-03-18 23:22:00,
2013-03-18 23:32:00,46.0,27.0,29.86,WNW,290,23.0,36.0,45,-99.99,,,-99.99,,2013-03-18 23:32:00,
2013-03-18 23:43:00,45.0,28.0,29.87,West,280,22.0,33.0,52,-99.99,,,-99.99,,2013-03-18 23:43:00,
2013-03-18 23:53:00,45.0,28.0,29.87,WNW,300,17.0,32.0,52,-99.99,,,-99.99,,2013-03-18 23:53:00,